GW5292 Weather Reports


time (UTC)temp
F
wind
direction
speed
knots
gust
knots
rain 1hr
in
rain 24hr
in
rain mn
in
humidity
%
barometer
mb
20260509031532 53 160 0.0 0.0 0.00 0.00 0.00 76 1012.4
20260509030005 54 160 0.0 1.7 0.00 0.00 0.00 73 1012.6
20260509024510 54 160 0.0 1.7 0.00 0.00 0.00 72 1012.4
20260509023016 54 160 0.0 1.7 0.00 0.00 0.00 71 1012.5
20260509021533 54 160 0.0 0.0 0.00 0.00 0.00 69 1012.6
20260509020023 55 160 0.0 0.0 0.00 0.00 0.00 65 1012.5
20260509014505 56 160 0.0 0.0 0.00 0.00 0.00 63 1012.3
20260509013012 56 160 0.0 0.0 0.00 0.00 0.00 60 1012.3
20260509011514 57 160 0.0 0.0 0.00 0.00 0.00 59 1012.1
20260509010023 58 160 0.0 0.0 0.00 0.00 0.00 56 1011.9
20260509004526 59 160 0.0 1.7 0.00 0.00 0.00 54 1011.6
20260509003011 60 160 0.0 1.7 0.00 0.00 0.00 52 1011.5
20260509001516 61 160 0.0 1.7 0.00 0.00 0.00 51 1011.2
20260509000018 61 146 0.0 1.7 0.00 0.00 0.00 50 1011.1
20260508234525 61 45 0.0 1.7 0.00 0.00 0.00 49 1010.9
20260508233028 61 207 1.7 2.6 0.00 0.00 0.00 49 1011.0
20260508231510 62 206 0.0 1.7 0.00 0.00 0.00 50 1010.9
20260508230013 62 206 0.0 1.7 0.00 0.00 0.00 49 1010.6
20260508224519 62 203 0.0 1.7 0.00 0.00 0.00 47 1010.6
20260508223040 62 215 0.9 2.6 0.00 0.00 0.00 47 1010.5
20260508221504 63 221 1.7 3.5 0.00 0.00 0.00 46 1010.7
20260508220004 62 209 0.9 3.5 0.00 0.00 0.00 48 1010.6
20260508214503 63 208 0.9 2.6 0.00 0.00 0.00 46 1010.7
20260508213010 63 193 0.9 3.5 0.00 0.00 0.00 46 1010.7
20260508211503 63 196 0.9 5.2 0.00 0.00 0.00 46 1010.8
20260508210004 64 160 0.9 5.2 0.00 0.00 0.00 44 1010.6
20260508204504 64 170 2.6 5.2 0.00 0.00 0.00 45 1010.6
20260508203003 64 166 2.6 7.0 0.00 0.00 0.00 45 1010.8
20260508201506 64 98 1.7 8.7 0.00 0.00 0.00 42 1011.0
20260508200009 65 204 3.5 7.0 0.00 0.00 0.00 43 1011.2
20260508194503 64 67 0.9 3.5 0.00 0.00 0.00 45 1011.3
20260508193003 62 192 3.5 7.0 0.00 0.00 0.00 45 1011.4
20260508191503 63 211 1.7 6.1 0.00 0.00 0.00 43 1011.5
20260508190007 63 121 1.7 8.7 0.00 0.00 0.00 45 1011.6
20260508184516 63 170 3.5 8.7 0.00 0.00 0.00 44 1011.5
20260508183009 62 220 3.5 8.7 0.00 0.00 0.00 43 1011.4
20260508181513 61 213 2.6 9.6 0.00 0.00 0.00 44 1011.5
20260508180005 63 188 1.7 10.4 0.00 0.00 0.00 43 1011.4
20260508174508 62 215 2.6 9.6 0.00 0.00 0.00 47 1011.4
20260508173007 62 238 3.5 9.6 0.00 0.00 0.00 42 1011.7
20260508171511 63 59 3.5 7.0 0.00 0.00 0.00 46 1011.9
20260508170009 61 144 2.6 8.7 0.00 0.00 0.00 46 1012.2
20260508164505 62 186 6.1 10.4 0.00 0.00 0.00 47 1012.5
20260508163012 61 203 3.5 11.3 0.00 0.00 0.00 44 1012.5
20260508161512 61 189 6.1 11.3 0.00 0.00 0.00 45 1012.6
20260508160019 61 223 4.3 8.7 0.00 0.00 0.00 47 1012.7
20260508154511 60 209 2.6 6.1 0.00 0.00 0.00 49 1012.8
20260508153007 59 198 2.6 6.1 0.00 0.00 0.00 47 1013.0
20260508151512 58 213 2.6 4.3 0.00 0.00 0.00 51 1013.3
20260508150034 56 225 4.3 7.8 0.00 0.00 0.00 54 1013.5
20260508144512 55 212 3.5 5.2 0.00 0.00 0.00 57 1013.8
20260508143016 54 217 2.6 5.2 0.00 0.00 0.00 58 1013.9
20260508141511 53 192 1.7 5.2 0.00 0.00 0.00 59 1014.0
20260508140024 53 202 2.6 5.2 0.00 0.00 0.00 58 1013.8
20260508134513 53 215 0.9 3.5 0.00 0.00 0.00 63 1014.1
20260508133014 52 213 0.9 2.6 0.00 0.00 0.00 65 1014.1
20260508131510 52 225 0.9 3.5 0.00 0.00 0.00 66 1014.2
20260508130013 51 215 0.9 2.6 0.00 0.00 0.00 70 1014.0
20260508124518 51 209 0.9 2.6 0.00 0.00 0.00 72 1014.0
20260508123020 50 203 0.9 2.6 0.00 0.00 0.00 72 1013.9
20260508121506 49 209 0.9 1.7 0.00 0.00 0.00 77 1013.9
20260508120011 47 207 0.9 1.7 0.00 0.00 0.00 83 1014.0
20260508114517 45 224 0.9 1.7 0.00 0.00 0.00 88 1014.0
20260508113022 43 253 0.0 1.7 0.00 0.00 0.00 93 1013.9
20260508111522 42 253 0.0 0.0 0.00 0.00 0.00 93 1013.8
20260508110009 40 253 0.0 0.0 0.00 0.00 0.00 93 1013.7
20260508104516 40 253 0.0 0.0 0.00 0.00 0.00 93 1013.4
20260508103021 38 253 0.0 0.0 0.00 0.00 0.00 92 1013.3
20260508101459 38 253 0.0 0.0 0.00 0.00 0.00 91 1013.4
20260508095959 39 253 0.0 0.0 0.00 0.00 0.00 91 1013.2
20260508094502 39 253 0.0 0.0 0.00 0.00 0.00 91 1013.1
20260508093004 39 253 0.0 0.0 0.00 0.00 0.00 91 1013.1
20260508091504 40 253 0.0 0.0 0.00 0.00 0.00 90 1012.9
20260508085958 40 253 0.0 0.0 0.00 0.00 0.00 89 1012.9
20260508084502 41 253 0.0 1.7 0.00 0.00 0.00 89 1012.9
20260508083002 41 253 0.0 1.7 0.00 0.00 0.00 88 1012.7
20260508081504 42 263 0.0 0.0 0.00 0.00 0.00 88 1012.5
20260508080009 42 263 0.0 0.0 0.00 0.00 0.00 87 1012.5
20260508074502 42 263 0.0 0.0 0.00 0.00 0.00 86 1012.4
20260508073003 43 263 0.0 0.0 0.00 0.00 0.00 84 1012.3
20260508071504 44 263 0.0 0.0 0.00 0.00 0.00 82 1012.2
20260508070024 45 263 0.0 1.7 0.00 0.00 0.00 80 1012.3
20260508064517 47 264 0.0 0.0 0.00 0.00 0.00 77 1012.1
20260508063010 48 264 0.0 0.9 0.00 0.01 0.00 75 1012.0
20260508061517 49 214 0.0 2.6 0.00 0.01 0.00 74 1011.9
20260508060017 50 258 0.0 3.5 0.00 0.01 0.00 72 1012.0
20260508054538 51 360 0.0 2.6 0.00 0.01 0.00 70 1011.6
20260508053008 51 299 0.9 4.3 0.00 0.02 0.00 67 1011.3
20260508051513 52 313 1.7 7.8 0.00 0.04 0.00 66 1011.1
20260508050018 51 11 0.9 1.7 0.00 0.04 0.00 68 1011.1
20260508044522 52 185 0.0 0.0 0.00 0.05 0.00 72 1009.9
20260508043025 52 185 0.0 1.7 0.00 0.05 0.00 66 1009.9
20260508041508 52 185 0.0 1.7 0.00 0.05 0.00 67 1009.9
20260508040035 52 185 0.0 1.7 0.00 0.05 0.00 74 1009.9
20260508034520 52 277 0.0 0.0 0.00 0.05 0.05 75 1009.4
20260508033024 52 277 0.0 1.7 0.00 0.05 0.05 73 1009.3